#timestamp,LO_Frequency,Hit 
1499097615.7,286047011.1,N
1499097635.6,286047013.9,N
1499097655.4,286047014.0,N
1499097675.2,286047012.1,N
1499097695.1,286047012.1,N
1499097696.0,286047012.1,N
1499097715.8,286047014.6,N
1499097735.6,286047015.4,N
1499097755.5,286047016.8,N
1499097775.3,286047018.3,N
1499097795.2,286047018.5,N
1499097815.9,286047018.0,N
1499097835.7,286047017.5,N
1499097855.6,286047017.6,N
1499097875.4,286047019.7,N
1499097895.3,286047020.4,Y
1499097915.1,286047004.3,N
1499097916.0,286047004.3,N
1499097935.8,286047001.7,N
1499097955.7,286047004.3,N
1499097975.5,286047001.5,N
1499097995.3,286047000.1,N
1499098015.2,286047000.5,N
1499098035.0,286047000.7,N
1499098035.9,286047000.7,N
1499098055.8,286047000.7,N
1499098075.6,286046998.8,N
1499098095.4,286046996.9,N
1499098115.3,286046998.8,N
1499098135.1,286046998.8,N
1499098155.9,286046998.5,N
1499098175.7,286046996.7,N
1499098195.5,286046995.0,N
1499098215.4,286046994.9,N
1499098235.2,286046995.4,N
1499098255.0,286046997.4,N
1499098256.0,286046997.4,N
1499098275.8,286046995.0,N
1499098295.6,286046995.6,N
1499098315.5,286046998.0,N
1499098335.3,286046998.0,N
1499098355.1,286046995.3,N
1499098375.9,286046995.5,N
1499098395.7,286046993.3,N
1499098415.6,286046995.8,N
1499098435.4,286046994.0,N
1499098455.2,286046992.3,N
1499098475.1,286046993.2,N
1499098476.0,286046993.2,N
1499098495.8,286046990.4,N
1499098515.6,286046990.7,N
1499098535.5,286046991.3,N
1499098555.3,286046991.0,N
1499098575.1,286046991.3,N
1499098595.9,286046991.4,N
1499098615.7,286046991.1,N
1499098635.6,286046990.5,N
1499098655.4,286046990.8,N
1499098675.2,286046990.4,N
1499098695.1,286046990.8,N
1499098696.0,286046990.8,N
1499098715.8,286046990.5,N
1499098735.7,286046992.6,N
1499098755.5,286046992.6,N
1499098775.3,286046990.2,N
1499098795.2,286046992.6,N
1499098815.0,286046993.0,N
1499098815.9,286046993.0,N
1499098835.7,286046992.0,N
1499098855.6,286046992.0,N
1499098875.4,286046992.5,N
1499098895.3,286046992.1,N
1499098915.1,286046991.7,N
1499098916.0,286046991.7,N
1499098935.8,286046992.1,N
1499098955.7,286046993.8,N
1499098975.5,286046993.5,N
1499098995.3,286046993.5,N
1499099015.2,286046993.8,N
1499099035.0,286046994.9,N
1499099035.9,286046994.9,N
1499099055.8,286046995.0,N
1499099075.6,286046997.9,N
1499099095.4,286046995.8,N
1499099115.3,286046995.9,N
1499099135.1,286046995.0,N
1499099155.9,286046995.9,N
1499099175.7,286046996.3,N
1499099195.5,286046993.5,N
1499099215.4,286046994.3,N
1499099235.2,286046993.3,N
1499099255.0,286046995.3,N
1499099255.9,286046995.3,N
1499099275.8,286046996.7,N
1499099295.6,286046999.4,N
1499099315.5,286046998.2,N
1499099335.3,286046998.9,N
1499099355.1,286047000.5,N
1499099375.9,286047001.0,N
1499099395.7,286047000.2,N
1499099415.6,286047002.7,N
1499099435.4,286047000.1,N
1499099455.2,286047002.0,N
1499099475.1,286047002.1,N
1499099476.0,286047002.1,N
1499099495.8,286047001.5,N
1499099515.6,286047002.9,N
1499099535.5,286047005.7,N
1499099555.3,286047006.1,N
1499099575.2,286047005.1,N
1499099595.9,286047005.9,N
1499099615.7,286047002.9,N
1499099635.6,286047003.5,N
1499099655.4,286047003.5,N
1499099675.2,286047001.9,N
1499099695.1,286047004.4,N
1499099696.0,286047004.4,N
1499099715.8,286047001.3,N
1499099735.7,286047002.2,N
1499099755.5,286047000.5,N
1499099775.3,286047000.8,N
1499099795.2,286046998.4,N
1499099815.0,286047000.6,N
1499099815.9,286047000.6,N
1499099835.7,286047000.4,N
1499099855.6,286047000.4,N
1499099875.4,286047000.5,N
1499099895.3,286047000.8,N
1499099915.1,286047000.0,N
1499099916.0,286047000.0,N
1499099935.8,286046999.7,N
1499099955.7,286047001.9,N
1499099975.5,286047001.6,N
1499099995.3,286047001.4,N
1499100015.2,286047005.9,N
1499100035.0,286047005.8,N
1499100035.9,286047005.8,N
1499100055.8,286047002.6,N
1499100075.6,286047002.1,N
1499100095.4,286047002.3,N
1499100115.3,286047000.5,N
1499100135.1,286047000.8,N
1499100155.8,286046998.2,N
1499100175.7,286046998.1,N
1499100195.5,286047000.0,N
1499100215.4,286047001.2,N
1499100235.2,286046999.2,N
1499100255.0,286046999.0,N
1499100255.9,286047011.9,N
1499100275.8,286046996.8,N
1499100295.6,286046995.1,N
1499100315.4,286046996.1,N
1499100335.3,286046995.8,N
1499100355.1,286046996.4,N
1499100375.9,286046995.8,N
1499100395.7,286046999.3,N
1499100415.5,286046998.5,N
1499100435.4,286046998.8,N
1499100455.2,286046998.5,N
1499100475.1,286046996.6,N
1499100476.0,286046996.6,N
1499100495.8,286046999.3,N
1499100515.6,286046996.6,N
1499100535.5,286046995.0,N
1499100555.3,286046996.7,N
1499100575.1,286046999.3,N
1499100595.9,286046999.3,N
1499100615.7,286046997.4,N
1499100635.6,286046995.2,N
1499100655.4,286046996.2,N
1499100675.2,286046996.3,N
1499100695.1,286046994.3,N
1499100696.0,286046994.3,N
1499100715.8,286046994.7,N
1499100735.6,286046994.7,N
1499100755.5,286046993.8,N
1499100775.3,286046994.5,N
1499100795.2,286046991.8,N
1499100815.9,286046993.9,N
1499100835.7,286046993.6,N
1499100855.6,286046996.4,N
1499100875.4,286046995.1,N
1499100895.2,286046996.2,N
1499100915.1,286046995.7,N
1499100916.0,286046995.7,N
1499100935.8,286046995.6,N
1499100955.7,286046995.0,N
1499100975.5,286046997.1,N
1499100995.3,286046997.5,N
1499101015.2,286046994.9,N
1499101035.0,286046997.4,N
1499101035.9,286046997.4,N
1499101055.8,286046999.2,N
1499101075.6,286046999.2,N
1499101095.4,286046996.7,N
1499101115.3,286046997.5,N
1499101135.1,286046997.6,N
1499101155.8,286046997.8,N
1499101175.7,286046997.1,N
1499101195.5,286046999.6,N
